DMSP 5D-2 F8 (USA 26)

Satellite information

Favourite Embed

Satellite Type and Status

PAYLOADIN ORBIT

Key statistics

Satellite DMSP 5D-2 F8 (USA 26) at a glance.

Uptime

13951

Days in orbit

Revolutions

≈ 14.2

Per day

Orbit

SSO

Sun Synchronous Orbit

Inclination

98.7

Latest

Satellite identification and parameters

Extended collection of information and parameters for DMSP 5D-2 F8 (USA 26).

Object identification

Identified? True

Debris? False

Object name: DMSP 5D-2 F8 (USA 26)

International designator: 1987-053A

Object number (NORAD): 18123

Object ID (CCSDS): 18123

Country: UNITED STATES OF AMERICA (US)

Current information (Y/N): Y

RCS size: LARGE

Orbital parameters

Period: 101.446 minutes

Inclination: 98.7327 deg

SMA: 7205.28 km

Apoapsis: 835.371 km

Periapsis: 818.919 km

RAAN: 67.0927 deg

Eccentricy: 0.00114166

Argument of periapsis: 280.1364 deg

Mean anomaly: 79.8524 deg

Mean motion: 14.19470814 rev/day

Mean motion (dot): 0.00000074 rev/day2

B* drag term: 0.000056035958 1/REarth

Two-line elements (TLE)

Creation date: Aug. 30, 2025, 3:38 a.m.

Reference frame: TEME

Reference center: EARTH

Epoch: Aug. 29, 2025, 10:49 p.m. UTC

TLE line 0: 0 DMSP 5D-2 F8 (USA 26)

TLE line 1: 1 18123U 87053A 25241.95130213 .00000074 00000-0 56036-4 0 9991

TLE line 2: 2 18123 98.7327 67.0927 0011417 280.1364 79.8524 14.19470814975513

Live tracking on map

Real-time ground track for satellite DMSP 5D-2 F8 (USA 26).

In-orbit conjunctions

A list of the most updated potential collisions computed for object DMSP 5D-2 F8 (USA 26).

Target Orbit TCA Probability of collision Miss distance Type
FENGYUN 1C DEB SSO 2025-06-01 18:24:36 0.0001914688 460.0 (m) DEBRIS
NOAA 16 DEB SSO 2025-05-19 00:38:25 0.0001293415 687.0 (m) DEBRIS
FENGYUN 1C DEB SSO 2025-04-01 16:40:57 0.004751159 50.0 (m) DEBRIS
NOAA 16 DEB SSO 2025-02-21 09:22:43 0.0001523133 387.0 (m) DEBRIS
FENGYUN 1C DEB SSO 2025-01-11 18:15:03 0.009438363 27.0 (m) DEBRIS

Associated space launch

Military meteorological satellite

DMSP 5D-2 F8 (USA 26) was lifted into orbit during the mission ‘Atlas E | DMSP-5D2 F8’, on board a Atlas E space rocket.

The launch took place on June 20, 1987, 2:34 a.m. from Space Launch Complex 3W.

For more information about the launch, click the button.

Launch to space Atlas E | DMSP-5D2 F8
Atlas E | DMSP-5D2 F8

Agency: N/A

Status: Launch Successful

Launch date: June 20, 1987, 2:34 a.m. UTC

Rocket: Atlas E

Launch pad: Space Launch Complex 3W

Location: Vandenberg SFB, CA, USA

...

Latest news about this satellite

There are no fresh news available about this satellite. Check back as we update our databases every day.


Newsletter sign-up

Weekly statistics, charts and insights to help you stay on top of the space industry.